This is the latest recevied weather packets stored in our database for station/object HA3YA-WX. If no packets are shown the sender has not sent any weather packets the latest 10 day(s).
| Time | Temp. | Humidity | Pressure | Rain* | Wind** | Luminosity | Snow |
|---|---|---|---|---|---|---|---|
| 1788081355 | 28.33° C | 69% | 1004 hPa | - | - | - | - |
| 1788080755 | 27.78° C | 73% | 1004 hPa | - | - | - | - |
| 1788080154 | 27.78° C | 73% | 1004.8 hPa | - | - | - | - |
| 1788079554 | 27.22° C | 73% | 1004.8 hPa | - | - | - | - |
| 1788078954 | 26.67° C | 74% | 1004.8 hPa | - | - | - | - |
| 1788078354 | 26.11° C | 75% | 1004 hPa | - | - | - | - |
| 1788077754 | 25.56° C | 79% | 1004 hPa | - | - | - | - |
| 1788077154 | 23.33° C | 84% | 1004 hPa | - | - | - | - |
| 1788076554 | 22.22° C | 88% | 1004 hPa | - | - | - | - |
| 1788075954 | 21.67° C | 89% | 1004 hPa | - | - | - | - |
| 1788075354 | 21.67° C | 91% | 1004.7 hPa | - | - | - | - |
| 1788074754 | 21.11° C | 93% | 1004.5 hPa | - | - | - | - |
| 1788074154 | 21.11° C | 94% | 1004.5 hPa | - | - | - | - |
| 1788073555 | 20.56° C | 97% | 1004.5 hPa | - | - | - | - |
| 1788072954 | 20° C | 97% | 1004.5 hPa | - | - | - | - |
| 1788072355 | 19.44° C | 95% | 1004.5 hPa | - | - | - | - |
| 1788071754 | 18.89° C | 96% | 1004 hPa | - | - | - | - |
| 1788071154 | 17.78° C | 95% | 1004.3 hPa | - | - | - | - |
| 1788070554 | 17.22° C | 95% | 1004.3 hPa | - | - | - | - |
| 1788069955 | 16.67° C | 95% | 1004.3 hPa | - | - | - | - |
| 1788069354 | 16.11° C | 95% | 1004.3 hPa | - | - | - | - |
| 1788068754 | 16.11° C | 96% | 1004.3 hPa | - | - | - | - |
| 1788068155 | 15.56° C | 96% | 1004 hPa | - | - | - | - |
| 1788067554 | 15° C | 96% | 1004 hPa | - | - | - | - |
| 1788066954 | 15° C | 97% | 1004.1 hPa | - | - | - | - |
* Rain since midnight (hover to see other rain measurements)
** Current wind speed in m/s (hover to see current wind gust speed)